RH
29 24 21 17 14 13 14 14 14 15 15 15 14 15 16 16 18 20 21 22 24 25 25 28 32 34 36 36 36 37 39 42 44 42 38 37 37 38 38 38 44 52 56 57 56 56 59 59 59 61 66 71 74 78 86 89 82 72 66 65 68 73 73 71 71 70 68 63 57 54 50 49 48 45 42 38 34 31 28 27 25 24 23 21 18
26 24 19 15 14 13 14 13 14 15 14 15 15 17 19 19 20 21 22 24 23 24 28 31 33 34 35 37 37 37 39 41 44 44 42 39 38 36 33 33 39 50 62 68 64 58 54 54 57 60 65 74 79 78 79 82 85 81 72 66 66 70 71 70 70 66 63 60 52 48 47 44 42 40 38 36 32 31 30 28 27 26 24 22 21
26 26 20 14 15 13 13 14 13 15 15 17 20 22 24 25 26 25 25 26 26 30 36 40 40 40 40 41 41 40 40 40 42 43 44 43 41 39 37 36 36 44 57 66 68 67 63 57 57 58 62 71 80 85 86 83 82 84 81 72 65 66 67 66 66 64 59 55 48 46 46 44 44 42 39 37 33 31 31 30 29 27 25 23 22
27 26 20 15 16 13 13 15 14 16 17 20 24 27 28 29 30 30 30 30 33 38 40 42 43 43 43 42 42 42 42 42 42 43 44 45 45 43 41 39 37 39 45 53 61 65 67 67 65 62 60 65 75 82 88 90 87 87 88 82 71 65 64 61 61 61 56 50 45 44 43 44 46 44 42 41 37 35 34 32 31 29 28 26 24
27 24 21 17 15 14 15 16 16 18 20 23 27 28 30 32 33 35 38 40 42 44 43 43 43 43 43 42 42 42 43 44 44 44 44 44 47 46 43 40 40 41 41 46 52 56 61 67 71 71 66 64 72 80 86 90 93 94 96 95 86 74 67 60 56 55 53 47 43 41 43 46 44 40 41 43 40 39 37 34 33 32 31 29 27
25 23 21 18 16 17 17 16 17 20 24 26 28 30 32 33 36 41 44 46 48 49 50 51 50 50 48 46 47 47 47 47 46 46 44 43 44 44 44 43 43 45 43 45 47 50 56 63 70 74 74 70 70 76 83 89 94 97 98 100 98 90 78 66 56 51 48 45 40 37 38 40 39 39 42 43 42 41 40 38 36 34 33 31 29
23 23 20 18 17 18 18 17 19 22 25 27 29 32 33 34 41 46 47 49 51 54 55 56 58 60 54 50 52 52 52 51 50 50 48 47 45 43 45 46 46 48 49 50 50 48 50 56 67 73 75 75 74 76 79 83 89 95 98 99 99 99 93 80 66 54 46 43 39 35 33 30 32 37 39 44 50 47 41 41 39 37 36 35 32
23 22 19 19 18 18 18 18 20 23 25 27 31 32 33 41 49 50 49 50 51 53 55 57 63 65 57 54 56 55 55 55 55 56 55 54 52 48 46 46 46 47 49 51 53 53 47 47 60 72 75 74 74 76 78 80 83 88 95 99 99 99 100 95 82 66 51 43 40 36 33 30 29 31 32 37 48 50 44 42 41 40 39 37 35
23 22 19 18 18 17 17 18 20 23 25 28 31 33 39 49 53 51 49 50 51 53 53 57 65 68 61 58 60 59 59 60 59 60 59 60 60 57 53 49 47 46 47 49 54 58 54 50 54 63 74 76 72 72 77 82 84 85 90 96 100 98 98 99 95 81 62 48 41 37 35 33 30 31 30 32 40 45 46 44 41 41 42 40 38
23 22 20 18 17 17 18 20 20 22 26 28 31 39 48 53 52 52 53 54 56 55 55 59 65 65 61 60 61 62 64 64 63 63 62 62 64 63 61 58 54 50 48 48 53 58 58 57 53 54 68 79 77 73 73 78 86 89 90 94 98 99 98 99 98 93 80 61 47 39 36 34 32 31 31 33 37 40 42 44 40 40 42 41 40
24 21 19 17 17 18 20 21 21 23 25 27 35 47 53 53 54 56 56 56 56 54 58 63 63 61 61 62 62 65 67 67 67 65 64 65 66 67 67 66 63 58 54 51 52 54 54 57 57 58 67 75 79 79 74 71 74 80 88 95 99 100 99 98 97 97 93 80 63 48 40 37 34 32 30 32 36 37 40 43 41 38 39 38 38
23 22 20 19 20 21 22 22 23 26 26 30 43 52 52 52 55 58 58 57 55 54 59 62 62 61 62 60 59 62 64 67 68 66 65 65 66 67 69 71 70 66 60 56 55 54 56 61 65 66 66 67 73 77 73 68 67 69 76 88 97 100 100 100 98 96 95 92 80 64 50 42 38 35 31 30 32 34 39 44 42 38 38 37 35
22 21 21 22 23 23 23 24 26 29 30 37 49 52 52 53 55 58 59 56 54 58 61 62 63 61 55 51 53 57 59 63 66 68 70 69 68 70 74 77 78 77 74 70 66 63 63 65 64 62 62 65 69 71 70 69 70 69 69 77 90 97 99 100 100 97 95 94 89 78 65 53 45 40 34 30 29 30 36 43 43 38 39 39 35
21 22 23 24 24 22 22 26 29 30 32 41 49 51 52 53 53 58 58 53 55 61 63 64 64 56 47 46 50 53 57 62 64 65 70 73 75 79 84 87 90 90 87 82 78 75 70 65 61 60 62 65 67 67 68 69 73 74 71 74 84 92 96 99 101 99 97 96 94 87 77 66 56 48 42 37 31 31 36 42 45 43 39 38 35
22 23 24 23 21 21 24 28 30 30 35 43 48 49 51 53 53 55 55 53 56 62 65 66 61 51 46 47 48 50 54 61 65 66 70 73 76 79 83 88 89 87 84 80 81 83 78 68 64 64 63 63 65 66 67 70 75 79 77 75 78 87 96 99 99 100 100 99 98 95 89 79 68 57 50 46 40 36 37 39 45 50 45 39 37
24 24 24 22 21 22 26 29 30 31 36 43 47 47 50 54 51 50 52 54 58 63 65 65 58 48 47 47 45 46 48 53 59 63 66 64 64 68 72 77 78 77 76 76 79 86 83 72 67 66 63 61 64 66 66 66 71 78 80 76 73 80 94 99 97 99 100 100 99 99 97 92 83 73 65 61 56 49 45 43 42 47 49 47 44
25 26 23 22 23 25 28 29 31 32 34 39 44 46 50 54 50 47 49 53 58 64 65 64 56 48 48 47 45 45 45 47 50 55 58 56 55 56 56 61 68 72 75 77 78 83 85 77 70 68 66 63 63 63 65 67 71 77 80 79 74 74 87 99 98 98 99 100 100 99 100 98 93 88 81 75 74 69 64 59 50 45 47 51 51
25 24 23 24 26 27 28 29 30 33 36 41 46 50 53 52 48 47 50 54 60 64 65 63 55 49 49 49 47 46 46 47 50 52 55 55 54 53 50 51 57 64 71 77 77 79 83 83 75 70 68 67 64 62 64 66 69 75 77 78 77 73 82 95 99 98 98 98 100 100 100 100 97 96 90 84 83 82 80 76 67 59 54 55 55
25 25 25 28 28 28 31 34 40 46 50 51 52 52 52 51 51 53 56 60 66 69 68 64 56 53 53 51 49 49 48 48 51 54 55 53 50 50 50 51 52 56 63 71 76 77 80 84 79 72 69 69 66 62 63 64 65 72 76 78 79 76 76 83 91 98 100 99 100 100 99 100 99 99 96 91 87 86 85 82 78 74 69 65 60
26 26 28 30 31 33 37 42 48 50 49 48 45 45 49 55 59 60 61 67 73 76 74 68 61 58 57 53 51 50 49 50 53 54 51 47 45 44 50 56 55 54 57 64 72 76 78 81 79 73 69 67 65 63 63 64 66 74 78 79 80 80 76 73 77 88 98 100 100 99 98 98 98 100 99 97 92 87 86 84 81 81 79 76 71
26 27 31 33 35 37 39 41 42 41 41 42 41 44 52 58 63 66 71 78 83 83 78 71 64 60 57 54 52 52 52 53 52 47 43 42 43 45 53 62 60 56 56 60 68 74 78 83 81 74 69 68 69 67 65 65 66 71 76 79 80 83 82 76 73 77 87 97 101 100 98 96 96 98 98 99 97 90 87 85 83 84 84 84 81
26 29 33 35 36 39 39 39 39 39 41 43 44 47 50 56 65 74 79 82 86 85 79 71 64 59 55 53 54 54 53 49 44 40 40 41 44 48 57 64 64 63 62 60 65 73 80 86 85 79 73 70 70 70 70 71 70 68 71 75 81 85 87 84 80 76 76 86 97 100 99 97 96 97 95 97 99 95 91 86 83 85 85 85 86
27 31 34 35 37 39 39 39 39 40 43 45 48 49 51 62 72 74 71 71 73 72 68 63 59 55 54 54 55 52 47 42 38 37 40 43 47 50 55 62 68 74 72 67 69 76 81 85 85 81 76 73 70 69 69 71 74 74 74 76 80 84 86 86 85 80 73 76 87 95 97 96 95 95 94 93 95 96 94 90 85 82 82 83 85
30 33 34 35 38 39 39 40 41 43 46 48 51 52 56 66 68 61 57 57 58 57 56 56 56 56 56 55 52 47 42 39 38 39 42 43 45 46 53 65 74 76 74 73 77 82 83 81 79 78 77 74 72 70 69 69 71 75 78 78 79 81 83 84 83 81 76 73 78 86 91 92 90 88 88 88 90 92 93 92 88 84 82 80 81
32 34 35 36 40 41 40 42 44 45 48 51 54 57 61 63 57 52 52 52 51 51 54 57 59 58 56 52 48 44 41 40 39 40 43 45 49 54 63 72 74 69 66 68 72 76 77 73 71 70 68 66 65 66 69 72 72 74 77 78 78 78 78 80 81 81 79 76 76 79 82 88 90 86 83 81 82 85 87 88 88 84 82 79 76
33 34 36 39 42 41 41 44 46 47 51 55 57 61 64 62 58 56 55 54 53 53 56 58 55 52 51 49 46 44 43 44 46 49 52 56 60 63 65 66 63 60 61 65 67 69 70 70 68 65 61 56 53 54 60 67 72 75 77 79 80 79 76 75 77 77 77 77 78 78 78 82 87 88 85 81 77 77 79 81 83 81 79 77 73
33 36 39 42 42 41 44 48 49 49 51 55 59 62 61 58 57 56 53 54 56 54 51 48 44 46 50 49 46 46 50 55 57 57 58 56 55 56 58 58 56 57 63 71 74 75 75 75 72 69 65 60 55 50 51 59 69 76 80 82 83 82 78 74 72 71 73 77 78 78 78 79 83 85 86 84 80 76 74 74 76 76 74 73 70
36 39 41 44 43 43 48 52 53 54 52 52 58 62 61 58 54 52 53 55 54 49 44 43 46 50 52 49 45 46 54 62 60 54 51 50 52 56 57 57 59 64 74 79 78 76 76 77 79 77 74 72 69 63 57 60 71 78 81 85 87 86 82 78 75 75 76 79 79 78 79 80 82 85 85 86 85 80 77 75 73 73 72 71 69
39 40 41 45 44 45 52 56 55 56 56 57 60 62 63 60 51 51 59 58 51 48 47 47 48 48 47 48 47 48 52 57 55 50 51 55 59 63 65 68 73 78 80 77 73 72 72 75 80 82 81 82 83 82 79 78 83 86 85 85 88 89 86 83 82 82 81 81 81 79 79 80 83 86 87 88 87 85 82 79 77 75 73 72 70
41 40 42 45 46 50 56 58 56 55 53 54 58 61 61 56 50 55 61 54 47 50 50 47 45 44 47 50 51 50 51 53 55 56 61 65 65 66 72 77 79 78 75 73 72 73 74 76 80 85 88 90 90 87 83 82 86 90 90 88 87 87 87 86 85 87 88 88 87 85 83 81 82 85 87 88 89 88 86 84 81 79 77 75 73
41 42 44 46 50 56 60 59 59 57 54 53 56 61 61 54 52 58 58 49 49 54 51 47 47 47 50 53 53 54 54 56 61 64 66 69 68 68 73 75 75 74 74 76 77 79 81 82 83 85 87 91 92 87 80 77 78 83 89 93 90 86 86 87 87 89 90 90 91 90 86 85 85 86 88 89 90 90 89 88 86 83 81 78 76
43 45 48 49 52 60 64 63 60 59 60 61 60 63 61 54 53 57 55 50 53 54 50 49 51 50 51 54 53 53 55 58 62 64 66 69 70 72 74 75 76 77 78 80 82 84 87 88 88 88 86 87 87 83 80 78 74 74 82 92 94 89 87 89 89 90 90 90 91 91 90 90 90 90 91 92 93 92 92 93 92 89 87 84 80
45 48 51 50 54 64 67 65 62 59 61 62 62 64 61 54 53 55 54 53 55 54 51 51 52 51 50 52 53 53 56 57 60 64 69 73 74 75 76 76 78 80 83 86 87 88 91 92 93 92 89 88 85 81 84 86 81 78 81 87 93 91 88 90 90 90 90 91 92 94 93 94 93 93 95 96 96 96 96 97 97 96 94 91 86
48 51 52 50 57 69 69 64 63 62 62 62 62 63 59 54 53 52 52 54 54 53 53 51 51 51 50 53 56 57 58 60 64 69 73 76 77 78 80 81 84 86 89 91 91 92 93 94 96 95 92 91 85 81 88 93 91 89 86 86 89 89 87 88 88 88 90 92 94 95 94 95 95 96 96 97 98 99 99 99 99 98 97 96 93
51 54 53 53 62 71 69 65 65 66 66 65 63 64 61 58 56 53 52 54 54 54 54 53 52 53 54 57 59 60 62 67 71 75 77 79 81 83 84 86 88 89 92 95 95 96 96 95 97 97 95 94 90 88 94 98 97 95 89 86 87 88 87 89 89 88 92 93 93 93 94 95 97 97 96 97 99 100 100 100 100 100 99 99 98
53 53 55 61 68 71 68 66 66 68 66 62 62 66 66 63 59 56 56 57 57 56 55 55 57 58 60 61 63 66 70 75 78 80 82 83 85 87 88 90 92 93 95 97 98 99 99 98 99 99 99 100 98 96 98 99 97 94 90 89 89 89 92 95 94 94 96 96 96 95 95 96 97 95 95 97 100 100 100 100 100 100 100 99 100
51 52 58 67 70 67 66 66 67 70 67 63 65 68 68 66 63 61 62 60 58 57 57 60 62 64 66 68 72 76 79 81 83 84 86 88 89 90 91 93 96 97 98 98 99 99 99 99 100 100 99 98 96 94 93 94 93 91 90 91 91 91 94 96 96 97 98 99 98 95 92 95 98 97 96 98 100 100 100 100 100 100 100 100 100
53 57 63 68 67 64 66 67 69 69 66 66 70 71 70 69 67 67 67 63 61 61 62 65 67 70 73 76 79 82 83 85 88 90 91 93 93 94 96 97 99 99 100 100 99 100 100 100 101 97 91 90 91 89 87 87 87 87 87 89 90 91 93 95 96 98 98 99 99 96 94 97 99 98 96 98 100 100 99 100 100 100 100 100 100
57 64 68 68 65 64 66 70 72 71 67 66 70 71 72 72 71 72 70 67 67 67 68 72 75 77 80 81 82 84 86 90 93 94 96 98 98 99 99 100 100 100 100 100 99 100 100 99 100 96 88 86 87 85 84 88 90 90 89 91 93 94 95 96 96 98 99 100 100 99 98 98 98 97 96 98 100 100 99 100 100 100 100 99 98
62 68 69 66 65 64 67 74 78 75 71 70 71 71 73 74 75 75 74 73 74 73 74 78 79 81 82 82 85 88 91 95 97 97 98 99 100 101 101 100 100 100 100 100 100 100 100 99 99 98 94 93 92 91 92 92 88 85 88 94 97 98 98 98 97 98 99 99 99 99 99 98 96 95 93 91 93 96 99 100 100 100 99 97 96
68 68 67 67 65 63 66 75 79 74 68 68 70 72 74 76 76 76 77 77 79 79 80 80 80 81 83 86 91 94 94 96 97 97 98 97 98 100 101 100 100 100 100 101 99 99 101 99 97 98 97 96 94 92 90 83 75 77 87 93 95 97 99 100 99 99 99 100 100 99 99 97 94 92 91 90 91 93 96 100 100 98 95 93 94
65 63 65 67 66 63 66 77 82 75 67 69 72 73 75 78 77 77 79 82 85 86 85 82 82 85 88 91 94 95 94 96 96 96 99 99 99 101 101 100 100 100 100 99 99 99 97 92 90 89 87 85 85 85 85 80 75 82 92 93 91 94 96 98 100 100 99 100 99 97 96 97 94 92 95 97 96 93 95 99 99 96 94 95 96
59 63 66 66 66 65 71 81 83 73 67 72 75 76 79 80 78 79 84 87 89 87 85 86 88 90 92 93 93 93 94 96 95 96 99 101 100 101 101 100 100 100 99 98 98 98 94 90 87 85 81 82 83 82 82 82 83 89 94 92 89 90 90 92 98 101 99 98 98 97 96 95 93 92 96 99 98 94 95 99 99 97 98 99 98
63 68 64 64 67 67 73 83 83 72 69 75 77 79 83 82 80 84 89 90 89 88 90 92 94 93 93 92 93 93 94 94 94 96 99 99 99 99 100 99 98 98 98 98 96 95 95 93 90 86 86 88 85 76 73 79 88 95 97 95 92 91 88 88 94 100 100 98 97 95 92 91 92 95 96 96 94 94 96 99 99 99 100 100 98
69 65 59 64 69 70 78 85 80 71 72 76 79 82 84 85 85 89 92 91 92 94 96 96 95 93 93 92 92 93 92 92 93 95 97 98 98 99 99 97 96 97 98 98 95 94 94 94 91 91 93 92 85 77 76 83 91 94 94 95 97 95 92 91 94 99 101 99 97 94 93 94 96 98 97 95 93 94 97 99 98 99 100 100 99
65 58 62 70 72 76 85 85 75 72 76 79 81 85 87 89 91 92 93 94 97 98 97 96 95 94 93 92 92 92 93 93 93 93 95 96 97 98 98 96 96 98 99 99 97 95 93 93 93 93 93 90 86 84 85 89 92 88 87 93 99 97 94 95 98 100 100 99 99 98 97 98 98 98 98 98 97 96 98 99 98 99 100 100 99
60 61 71 76 77 81 85 79 74 76 79 81 84 87 88 91 93 93 94 97 99 98 98 96 95 94 93 92 93 94 94 94 93 92 94 94 93 95 97 99 100 101 101 100 99 96 94 94 95 95 94 94 94 92 91 92 92 87 88 95 100 98 97 98 100 100 99 99 100 99 97 97 98 99 99 99 98 98 99 99 99 99 99 98 98
64 70 76 77 78 81 79 77 79 80 81 83 86 87 89 92 94 95 98 100 100 98 98 97 95 94 93 93 94 95 95 94 93 93 94 94 93 94 97 100 101 100 101 101 100 98 98 98 99 98 98 98 96 93 94 97 96 92 95 100 100 99 98 98 98 99 100 100 99 99 98 99 99 99 100 100 99 99 100 100 100 100 99 99 98
70 74 76 76 78 80 79 80 83 82 83 85 87 88 91 93 95 96 99 101 101 99 97 96 95 94 94 95 95 95 95 94 94 94 93 92 93 96 100 100 97 97 100 102 100 99 100 100 100 100 100 100 98 96 98 100 98 98 100 99 95 93 93 94 96 97 98 99 100 100 100 100 99 99 100 100 100 100 100 100 100 100 100 100 99
72 76 76 75 78 82 84 84 84 84 86 88 89 90 92 94 95 97 99 101 102 101 99 97 96 95 96 97 96 96 95 95 95 95 93 92 92 94 99 100 97 96 99 100 100 100 100 100 100 99 97 98 99 99 98 98 98 100 100 96 90 89 91 96 99 98 97 98 100 100 100 100 99 99 100 100 100 100 100 100 100 100 100 100 98
75 76 76 77 81 84 86 87 86 87 88 90 91 92 92 94 96 98 99 101 102 102 101 98 97 97 97 97 98 98 96 95 95 94 95 95 94 93 94 96 96 98 100 101 100 100 99 98 99 98 94 93 95 97 98 98 99 100 99 97 95 95 97 100 99 95 96 98 98 98 100 99 97 98 100 100 100 100 100 100 101 101 99 98 96
Wind_Speed
12 16 18 22 25 26 26 27 30 30 30 33 36 35 32 31 32 31 30 28 27 28 29 28 25 23 23 22 22 22 21 21 20 17 17 20 26 30 33 35 33 32 32 33 33 31 28 27 23 20 20 18 19 19 19 21 26 31 34 37 40 39 37 40 42 38 29 21 18 22 26 29 32 33 35 36 36 36 35 34 34 33 33 32 30
10 12 16 20 22 23 24 25 28 29 32 34 34 34 33 32 33 33 30 28 28 28 28 29 27 27 25 22 19 19 19 20 20 19 18 17 21 27 32 33 31 30 29 30 31 31 29 29 28 26 23 20 20 21 22 20 19 22 27 29 33 38 38 39 43 36 26 21 15 10 13 20 25 29 33 36 36 36 35 35 35 35 34 33 32
7 7 12 17 20 23 24 25 28 29 30 30 30 31 31 31 33 32 31 30 28 25 23 25 26 26 23 21 20 21 20 19 19 20 20 19 19 24 28 30 30 28 27 27 27 28 27 28 29 28 27 24 21 20 21 23 23 20 21 25 26 29 30 35 44 42 31 24 14 7 7 8 12 20 28 36 37 37 37 36 36 36 36 35 33
7 6 9 16 19 21 23 25 27 27 26 26 27 28 28 29 31 31 31 29 24 22 23 25 26 25 24 24 25 25 25 23 21 21 21 22 22 22 25 29 30 29 28 28 27 27 27 29 30 29 28 26 24 22 20 21 24 23 20 22 23 23 21 24 39 46 38 27 13 3 3 5 6 12 18 26 33 36 37 38 38 38 38 37 36
8 6 8 14 16 19 22 26 26 24 23 23 25 26 26 27 29 29 29 28 25 25 27 26 25 26 26 27 27 27 26 25 24 24 24 24 23 23 24 28 29 29 30 29 28 28 28 29 31 30 28 26 24 24 23 21 20 22 21 21 21 21 22 20 28 39 40 38 27 10 5 5 6 7 9 14 25 34 37 38 39 39 38 38 37
9 8 10 13 14 20 25 27 25 21 21 23 25 26 26 27 25 24 26 27 28 28 27 27 26 26 25 24 22 22 22 22 23 24 26 26 26 25 25 26 27 28 29 30 29 28 28 28 29 29 28 27 25 24 25 24 22 22 22 22 21 21 22 20 22 30 36 40 38 28 21 15 9 9 8 5 15 27 33 35 38 39 39 39 39
10 11 14 15 17 23 27 27 25 22 24 27 27 27 28 26 22 22 26 27 27 28 29 28 25 24 24 21 20 20 20 21 23 25 26 27 27 27 25 24 26 28 28 29 29 28 28 29 29 28 27 26 25 25 26 26 25 24 23 23 23 22 22 21 22 27 29 33 36 36 29 17 14 17 10 3 5 13 24 31 36 38 38 39 40
10 11 14 17 21 25 27 26 25 23 26 27 26 28 27 22 21 25 28 28 28 28 28 27 23 23 23 22 22 23 22 23 25 25 26 27 27 28 27 26 26 28 29 29 30 29 28 29 30 28 27 25 24 24 25 26 27 27 25 24 25 25 24 22 24 26 25 28 33 35 30 18 15 23 22 13 6 4 12 20 28 35 36 38 39
10 11 13 18 23 27 27 25 24 24 25 25 26 26 22 19 24 28 28 28 27 27 27 24 20 20 22 23 24 25 25 25 25 25 26 26 27 27 28 28 28 29 30 31 30 28 28 29 29 28 28 27 27 26 25 25 27 28 28 26 25 27 27 24 25 27 27 28 31 31 31 24 17 20 24 20 11 6 7 9 16 22 27 36 41
10 12 16 21 25 27 25 25 28 28 26 26 25 20 17 21 26 28 28 28 26 27 28 23 17 19 22 24 25 26 27 26 25 26 26 25 25 26 27 28 29 30 30 31 29 28 29 29 28 29 29 27 27 27 27 26 26 26 28 27 27 27 28 27 25 27 29 29 30 28 27 24 17 12 16 18 12 7 6 7 11 15 16 27 38
11 13 19 25 27 26 27 30 32 32 31 30 22 15 18 23 25 25 27 26 25 27 24 19 18 21 23 24 26 27 28 27 25 25 26 25 25 25 26 27 28 30 30 31 31 31 31 31 30 29 29 28 28 28 28 29 28 28 28 27 27 27 28 29 27 26 27 28 30 29 27 27 22 16 16 18 12 6 5 5 10 18 17 18 29
11 12 16 22 24 26 30 33 32 32 34 29 19 19 24 24 23 24 23 23 25 24 20 19 21 22 21 23 26 27 28 28 27 26 26 26 25 25 26 26 28 29 30 30 31 32 31 29 28 29 29 30 31 30 30 30 30 30 30 28 27 28 28 29 29 28 27 26 29 30 29 29 29 28 26 22 18 14 10 4 8 16 14 14 21
13 14 15 17 19 25 30 31 29 30 30 24 20 24 26 24 24 22 19 21 24 22 20 21 20 18 20 23 25 26 27 28 28 28 28 27 26 26 25 26 26 27 28 29 30 31 31 29 29 31 31 30 29 30 30 30 29 28 29 29 28 28 28 29 30 32 30 28 27 28 28 29 29 31 30 25 21 19 14 6 9 14 10 9 16
15 15 15 15 20 28 30 28 27 28 27 23 24 26 26 25 24 19 18 23 24 21 20 19 17 18 20 22 23 25 26 27 28 28 27 27 27 27 27 26 25 25 26 28 31 33 34 34 33 32 30 30 30 29 28 29 29 27 26 27 28 29 28 28 29 31 32 31 29 26 27 28 29 29 30 27 21 19 16 9 7 8 6 5 10
14 14 16 19 27 31 30 27 27 28 27 26 27 28 28 27 23 19 21 24 23 20 19 18 17 18 19 19 22 25 27 28 29 28 27 28 29 29 29 27 26 27 28 30 32 34 35 34 32 32 32 32 32 30 27 28 29 28 27 26 28 29 28 27 28 29 31 32 32 30 27 27 28 27 26 26 24 21 19 16 14 8 3 3 5
14 15 17 24 31 32 28 28 28 28 28 28 29 31 31 29 24 22 25 25 23 20 18 17 17 18 19 21 24 27 28 30 31 31 29 29 30 30 31 31 29 30 31 31 31 33 34 32 31 33 33 32 31 30 28 28 28 29 27 25 26 28 27 27 27 28 29 30 30 31 29 28 29 29 26 25 24 23 19 19 21 15 7 4 4
15 16 18 24 29 30 29 30 29 28 29 31 32 33 33 29 26 27 29 28 24 21 19 19 18 19 21 23 26 28 29 31 33 32 31 31 33 34 35 34 32 31 31 31 31 31 33 32 31 32 33 32 32 30 29 27 27 28 27 25 24 25 26 26 26 26 27 28 28 29 29 29 29 28 28 28 27 26 22 20 23 22 15 7 5
17 18 20 24 27 29 32 32 31 31 33 33 33 35 34 30 28 32 33 31 27 23 22 21 19 20 22 24 27 28 29 32 33 32 32 34 37 38 38 37 35 33 32 32 32 32 32 33 33 32 31 31 32 30 28 27 27 28 28 27 25 23 24 24 24 24 25 25 26 27 28 28 28 27 28 29 28 27 25 25 25 26 23 14 7
16 17 17 20 26 30 32 34 34 36 36 35 36 37 33 31 33 37 38 36 33 28 25 21 19 21 23 25 26 27 30 32 32 32 33 37 40 42 42 40 38 35 33 32 32 32 31 32 33 32 30 30 31 30 29 28 28 29 30 28 26 23 22 23 23 23 23 23 23 24 25 26 27 27 27 28 28 27 26 27 28 27 26 23 16
15 16 15 18 26 30 33 36 38 39 39 38 38 38 36 36 39 41 42 41 36 30 25 21 21 23 24 25 26 28 30 31 31 34 39 44 46 45 43 40 37 34 33 33 33 32 31 31 32 31 29 29 29 29 30 29 28 29 29 29 27 24 22 21 21 21 20 21 21 22 23 24 24 24 26 27 28 28 27 27 28 29 27 26 23
16 16 15 18 26 31 35 38 38 39 40 39 39 39 39 40 40 39 39 37 34 30 25 21 21 22 24 27 28 29 29 30 34 41 47 49 47 43 40 37 34 33 32 32 32 32 31 30 29 27 26 26 27 27 27 29 28 28 28 28 28 26 23 21 19 18 18 19 20 21 23 25 24 22 23 25 27 28 28 27 28 28 29 29 26
17 15 14 19 26 30 32 35 36 37 37 36 37 38 39 41 40 38 35 33 32 29 26 24 25 27 29 30 29 28 30 35 43 48 49 45 42 38 34 33 32 32 32 32 32 31 30 29 28 27 25 25 25 24 23 25 27 29 28 28 28 27 25 23 19 18 17 17 18 20 22 24 23 22 23 24 25 27 27 27 27 28 29 31 29
17 14 16 22 26 27 29 32 34 34 33 34 34 35 39 40 37 34 33 33 33 31 30 30 32 34 33 30 29 31 35 42 47 47 43 38 35 33 32 32 32 31 31 31 31 31 29 27 26 26 26 25 25 24 23 23 25 28 29 29 29 28 26 25 23 21 19 18 18 20 21 23 22 22 23 24 24 26 27 27 28 28 29 30 31
15 14 18 24 25 25 28 30 31 31 31 33 33 35 38 36 33 33 34 36 36 35 36 36 35 32 30 30 33 36 40 43 44 41 37 34 32 33 33 31 28 27 27 27 27 27 27 26 25 26 26 25 24 24 24 25 26 27 28 28 28 28 28 27 27 25 22 21 21 21 22 21 21 22 24 24 24 25 26 27 28 28 29 29 29
15 16 18 20 20 23 27 29 30 30 30 33 36 39 37 33 34 35 35 37 39 39 38 35 31 30 32 35 36 37 39 40 38 36 33 32 32 31 29 26 24 25 27 27 26 24 23 23 24 25 26 24 23 23 25 27 28 28 28 28 29 29 29 29 29 28 26 24 23 23 23 21 20 22 23 23 24 24 26 27 28 28 29 28 27
17 18 17 16 18 22 28 30 30 32 34 37 38 37 36 35 34 33 34 37 38 36 33 31 34 37 37 34 33 35 37 36 33 30 29 28 28 27 27 26 25 26 27 27 27 25 23 23 23 23 24 24 24 25 26 28 30 30 29 28 28 29 30 30 30 29 28 27 26 25 24 23 22 23 23 23 23 24 25 26 28 28 28 28 25
16 17 16 16 17 21 28 30 29 32 37 40 39 37 36 36 35 35 37 37 33 32 34 37 39 38 33 28 29 33 34 30 27 26 26 27 27 27 28 28 28 28 27 25 24 23 23 23 24 24 25 25 26 28 29 30 31 31 30 29 28 29 30 30 30 30 29 29 28 27 25 25 25 26 25 24 23 24 25 26 28 28 27 27 25
17 17 17 18 19 19 23 27 29 33 38 40 40 40 38 35 36 39 35 30 30 35 38 37 33 28 27 29 32 34 32 27 27 29 29 29 29 28 28 29 29 27 24 22 23 25 26 25 25 25 25 26 27 29 30 31 32 31 30 29 28 29 29 29 30 31 31 30 29 29 27 26 27 27 27 26 26 26 26 26 28 28 27 27 25
19 19 19 19 20 18 19 24 29 35 40 41 40 38 36 36 40 38 29 26 32 35 32 29 26 27 30 32 33 33 31 28 30 31 30 28 26 27 29 28 26 23 23 25 28 30 30 28 27 27 26 25 26 27 27 26 27 29 29 29 29 30 30 30 30 31 31 32 31 30 29 28 28 29 28 28 28 28 27 27 27 27 27 27 26
19 20 20 19 19 18 19 25 30 33 39 42 41 38 36 38 40 34 28 30 33 29 25 25 28 30 30 31 31 31 30 30 31 29 26 24 25 27 28 26 25 27 30 32 33 33 32 30 28 27 26 25 25 25 25 24 23 25 27 30 30 31 32 31 31 30 30 31 31 30 30 30 30 30 29 28 29 29 29 29 29 28 28 28 26
20 21 20 20 19 16 17 24 30 33 36 38 39 38 37 38 36 31 30 31 29 25 25 27 29 30 30 29 30 30 29 28 27 25 23 24 26 28 28 29 31 33 34 33 32 32 31 30 28 26 25 25 26 26 26 26 25 25 28 30 31 31 32 31 31 30 29 29 30 30 30 30 30 30 30 30 30 30 31 31 31 30 30 30 29
22 21 20 21 17 13 15 23 31 34 36 37 37 37 36 35 34 32 32 31 27 27 29 30 29 29 28 28 28 28 28 27 26 25 24 25 27 29 31 32 33 33 32 32 31 31 30 29 28 27 26 27 28 29 28 28 28 29 31 32 31 30 30 30 31 31 31 30 30 29 29 29 29 30 30 30 30 30 31 32 32 32 31 32 33
21 21 21 21 16 12 18 27 31 33 36 40 40 37 35 34 33 32 33 31 29 30 30 30 28 27 27 27 27 27 28 27 27 25 24 25 28 30 31 31 30 30 30 30 30 30 28 27 27 27 28 30 31 33 32 30 30 31 33 34 32 29 29 29 29 31 32 31 30 28 27 28 29 29 29 29 29 29 30 31 31 31 32 34 36
21 20 21 21 17 16 23 30 33 33 36 39 39 36 34 34 33 33 32 31 30 30 29 28 27 26 27 26 26 27 28 27 27 26 26 27 28 29 28 27 27 27 26 26 27 27 26 26 26 27 29 31 33 35 32 30 30 30 32 35 33 29 29 30 31 32 32 31 30 28 27 28 28 28 29 29 29 29 29 29 30 31 33 35 37
21 20 21 23 23 23 27 31 33 33 34 37 37 34 33 33 33 32 31 31 30 29 28 27 26 26 27 26 27 28 28 27 27 27 28 28 28 28 27 27 26 26 26 25 26 26 26 26 26 27 29 30 32 33 29 27 28 28 30 34 31 26 26 29 32 33 33 31 30 29 29 28 28 28 29 29 29 30 29 29 30 32 33 34 35
21 22 24 26 26 26 29 32 33 32 34 37 37 33 32 32 32 31 31 30 29 28 27 26 26 26 27 27 27 27 27 27 28 28 29 28 28 28 28 27 27 27 26 25 25 25 25 25 26 26 26 26 27 27 25 25 26 27 28 29 27 24 25 27 28 29 31 31 31 31 31 31 30 30 31 30 30 30 30 31 32 32 32 32 34
26 29 29 29 28 28 31 34 34 32 34 37 36 33 32 31 30 30 30 29 28 27 26 27 27 27 28 27 26 26 27 28 28 28 28 27 27 28 29 28 27 26 26 25 24 24 24 24 24 24 21 19 20 20 20 21 22 23 25 25 23 22 24 26 26 28 29 29 31 33 33 32 32 33 33 31 29 30 32 33 33 32 31 30 32
31 32 30 28 29 31 33 35 32 30 33 37 35 32 31 30 29 29 29 28 27 27 27 28 28 28 28 26 25 26 27 28 28 27 28 28 28 29 29 27 25 25 26 26 24 23 24 24 24 22 19 17 18 18 17 17 20 21 22 24 24 23 23 24 25 26 27 28 30 33 33 33 33 33 32 30 28 30 33 34 33 30 28 28 29
32 32 29 28 31 32 34 33 28 26 33 37 35 32 30 29 29 29 28 26 26 28 29 29 29 28 27 26 26 27 27 27 27 28 28 29 29 29 28 27 25 25 26 28 26 24 24 25 23 22 20 18 19 21 19 18 19 21 21 21 23 23 23 24 23 23 24 27 29 31 33 33 34 33 31 28 27 30 33 35 33 28 26 27 29
32 31 30 30 32 33 32 28 24 26 32 35 34 31 29 28 29 28 26 25 28 30 30 29 28 27 27 27 28 28 27 27 28 29 30 30 30 29 28 28 28 27 26 28 30 28 27 26 24 25 24 22 20 19 17 15 16 18 19 18 18 19 20 21 23 23 24 25 28 30 31 32 33 31 29 29 29 31 34 35 32 28 26 27 29
32 32 31 29 30 34 34 28 22 27 33 35 33 30 27 28 28 26 26 27 30 31 29 28 29 29 29 29 27 27 28 29 29 30 32 33 32 29 28 29 28 26 24 26 29 28 23 21 21 21 20 17 15 14 14 14 15 17 17 16 17 18 17 17 19 22 24 25 25 27 28 29 30 30 28 29 30 32 34 33 31 31 30 28 26
34 34 32 31 31 35 36 28 21 28 35 35 32 28 26 27 27 26 28 30 31 30 28 29 30 30 29 29 28 28 30 29 29 30 31 33 30 26 26 26 24 23 23 24 26 23 17 16 18 18 17 16 15 15 16 16 16 16 15 15 17 18 17 16 16 18 20 21 22 25 26 27 28 27 25 25 27 29 30 30 31 31 28 23 24
36 32 32 34 33 35 34 25 21 31 37 34 30 27 26 27 27 27 30 31 30 29 29 30 31 30 30 30 30 31 30 29 29 30 28 27 26 25 24 22 20 21 22 22 21 19 16 16 17 19 20 18 15 14 15 17 17 15 15 16 17 17 17 17 17 17 18 18 20 22 23 23 24 22 21 22 23 25 26 26 28 27 22 21 24
33 31 35 36 34 34 31 22 23 34 37 32 28 27 26 27 28 29 31 31 30 31 31 31 30 30 31 31 30 30 30 28 28 28 25 24 24 25 23 20 19 19 19 18 18 18 16 15 17 20 20 15 12 14 16 17 17 16 15 15 16 16 16 17 17 17 17 18 19 20 20 20 19 17 18 20 21 21 21 21 24 24 22 24 27
30 34 39 37 34 33 27 21 27 36 35 30 27 26 26 27 29 30 31 30 31 33 32 31 31 31 31 31 30 29 28 26 26 25 24 23 24 23 22 20 20 19 17 17 17 16 16 16 16 16 16 14 15 18 19 18 16 15 14 14 14 13 13 14 16 16 16 17 18 17 16 15 14 14 16 18 18 18 17 19 24 25 25 28 29
32 38 38 34 33 30 23 24 33 36 31 28 27 26 26 28 30 31 30 30 32 33 31 31 31 31 31 31 30 28 26 25 24 23 22 22 23 22 21 22 22 19 16 16 16 17 17 16 14 13 14 17 20 20 18 17 16 15 14 13 12 11 10 10 11 13 13 12 11 10 9 10 12 13 14 15 14 14 16 21 24 25 26 28 29
36 38 35 31 29 27 26 30 34 32 29 28 28 27 28 29 30 31 31 31 32 31 31 31 31 31 31 30 29 28 27 26 26 25 24 23 23 23 22 22 21 19 17 16 17 17 17 15 13 14 16 18 19 18 17 17 15 14 14 12 8 4 5 6 7 8 7 7 7 7 7 9 10 10 10 10 10 12 18 22 23 25 27 28 28
37 35 32 30 30 29 30 32 31 29 30 29 28 29 30 30 31 31 31 32 32 31 31 31 30 30 29 29 28 28 27 27 27 26 25 24 24 25 24 22 22 21 20 18 18 18 17 16 15 16 16 15 15 16 16 15 14 14 12 5 3 7 9 10 9 9 9 9 8 8 8 9 10 11 13 13 14 18 21 23 24 25 26 25 24
34 31 31 32 31 30 31 31 29 28 29 30 31 31 31 31 31 32 32 32 31 31 31 30 29 29 29 28 28 28 27 27 26 26 26 25 24 23 23 24 25 24 21 21 22 21 20 19 19 17 15 13 13 15 15 12 12 12 6 4 9 10 10 10 10 12 13 12 11 12 14 15 17 19 20 20 22 24 24 25 26 26 25 23 22
31 31 33 35 32 30 30 30 28 27 28 30 32 32 31 31 32 32 32 32 32 31 29 29 29 28 28 28 28 28 28 27 25 25 26 26 25 22 19 20 24 24 23 24 25 22 21 23 21 16 12 11 11 12 12 10 9 6 2 8 9 8 10 11 12 14 15 15 15 15 16 17 19 20 19 19 22 24 24 23 23 24 25 24 22
31 32 34 35 32 30 31 30 29 29 30 32 32 31 32 32 32 33 33 33 32 30 27 27 28 29 29 29 28 27 28 27 26 25 25 24 25 25 22 19 20 22 24 25 24 21 21 25 23 16 12 12 10 8 8 8 5 4 8 9 9 9 11 12 13 15 16 16 17 16 15 16 18 19 17 18 21 22 23 23 22 22 22 23 23
Wind_Direction
20 20 20 15 7 2 357 353 350 345 342 340 336 331 329 333 329 320 317 319 321 323 321 313 304 299 293 289 294 300 295 285 280 285 298 304 304 305 308 309 309 312 313 307 302 301 301 300 296 291 289 283 278 277 265 246 233 226 220 213 205 201 202 203 204 201 196 199 209 214 215 217 219 221 223 225 225 225 223 223 224 225 226 227 227
19 18 17 9 1 358 355 353 352 347 343 341 340 338 336 336 332 323 320 321 321 322 323 320 313 306 299 294 303 310 303 290 282 283 287 291 300 304 307 309 307 309 317 312 301 298 300 301 298 292 290 290 284 277 272 269 261 244 233 226 214 205 202 201 198 193 190 194 192 192 211 219 221 222 224 225 225 224 223 224 224 225 226 226 226
1 7 9 360 353 354 354 353 352 347 343 343 345 345 342 339 335 330 327 326 324 326 330 330 326 321 315 314 318 318 314 305 293 289 286 279 289 301 303 305 306 306 311 312 308 306 305 304 303 297 291 289 290 286 275 268 269 266 248 239 231 219 211 201 195 194 192 187 175 168 196 209 220 226 225 224 223 223 222 222 223 225 227 227 226
348 352 354 348 349 355 355 352 347 343 342 343 345 344 340 337 335 332 331 329 328 330 332 330 328 325 321 319 320 318 316 314 305 296 290 281 280 289 297 301 302 300 301 305 307 309 309 308 305 299 294 291 288 287 284 272 265 265 260 248 241 233 225 207 199 199 193 180 167 153 156 160 214 223 220 222 220 219 221 222 223 224 225 225 224
347 339 335 341 352 357 352 345 341 340 341 342 341 338 335 333 333 334 336 336 334 332 331 329 328 326 322 320 320 318 314 311 309 303 297 291 282 278 287 295 295 295 297 298 299 303 305 305 304 298 294 294 293 287 283 280 267 259 258 255 248 239 232 221 207 203 199 193 188 173 142 180 226 193 185 219 219 216 219 220 221 222 222 222 223
345 336 333 340 351 349 343 339 337 338 340 340 337 335 332 330 332 336 339 338 334 332 333 331 332 330 324 322 320 317 311 307 305 302 298 294 289 285 286 288 288 288 291 291 291 297 299 297 298 297 294 292 294 295 288 284 276 263 255 252 252 246 238 232 218 210 208 205 201 199 199 204 198 155 143 206 214 215 218 218 219 221 222 223 223
351 348 345 345 344 340 336 335 337 338 340 339 336 334 329 327 333 338 337 335 331 329 328 327 329 326 319 320 323 318 310 306 305 305 303 300 297 293 289 285 285 283 283 283 285 289 294 293 290 289 291 290 290 293 292 290 285 276 266 255 249 248 244 237 225 216 214 214 212 212 212 209 191 179 174 159 182 216 219 217 220 220 220 222 222
357 353 348 342 337 334 332 333 336 336 336 335 332 329 325 326 336 339 337 334 330 329 327 324 322 316 315 322 324 318 312 307 308 309 307 305 302 298 293 287 284 284 281 280 280 280 284 287 286 284 283 283 285 287 288 290 290 286 278 265 252 247 246 243 231 220 215 216 218 219 221 222 204 194 195 187 159 199 215 216 220 219 219 221 222
354 346 339 335 334 331 330 333 333 329 328 327 326 324 323 330 336 334 332 329 326 326 326 325 320 314 320 325 320 315 312 307 306 307 306 305 303 300 298 292 286 284 281 279 276 271 274 277 280 282 278 276 277 279 281 283 285 286 283 274 263 252 246 245 237 226 220 217 218 220 223 226 220 207 203 197 187 189 196 205 212 212 219 223 222
347 340 335 332 331 330 332 335 332 326 321 321 323 323 324 330 332 329 327 325 323 322 320 320 322 324 326 326 320 315 311 306 304 304 304 304 301 299 298 296 291 285 280 278 273 268 271 273 274 275 273 273 273 273 275 278 280 282 283 279 271 260 249 244 239 233 228 223 220 219 219 221 221 213 208 203 201 207 203 198 192 190 209 221 219
341 335 331 330 333 337 340 337 332 328 323 320 322 327 330 330 329 326 324 323 323 324 323 322 329 334 334 331 326 319 312 305 301 301 301 300 298 298 298 296 292 287 281 279 276 274 272 270 268 267 266 269 271 269 271 275 278 279 281 280 272 265 255 244 238 235 232 229 226 223 218 218 218 220 217 206 199 202 193 190 192 195 207 216 214
331 329 331 334 339 343 341 334 331 329 325 321 325 331 330 328 324 320 320 323 325 324 323 326 333 338 339 337 332 326 319 309 300 299 300 299 296 296 297 296 293 288 283 280 279 276 269 263 263 265 268 268 266 265 268 272 275 274 275 277 273 267 260 248 239 235 233 230 229 227 224 222 221 224 226 215 206 206 196 176 183 191 207 223 213
336 338 338 341 342 340 335 329 326 327 322 319 325 327 325 322 317 314 314 321 323 319 317 324 331 336 339 338 334 330 325 317 310 307 304 301 299 297 296 295 293 289 286 284 282 277 270 267 268 270 272 270 264 263 266 269 271 270 270 272 270 267 263 255 245 238 236 233 232 230 228 228 226 226 229 224 213 205 197 189 184 184 198 216 204
341 341 340 340 336 332 328 323 322 323 319 316 320 321 318 315 312 309 311 320 320 312 312 317 320 327 335 336 334 333 329 322 317 314 312 310 309 307 304 299 293 291 291 290 289 282 273 270 271 270 269 268 265 264 265 266 265 266 268 268 267 266 264 260 253 245 239 235 234 233 229 228 229 228 229 229 219 204 197 189 174 182 201 192 192
338 339 337 333 331 327 323 320 321 322 319 317 317 318 316 311 308 306 310 316 315 306 305 308 312 323 331 333 335 336 331 323 317 315 315 316 315 311 307 303 298 295 295 294 293 286 274 267 267 267 265 265 264 261 261 265 264 262 265 267 266 266 263 259 256 250 243 237 234 235 232 229 229 228 227 228 222 214 208 196 176 166 184 179 190
339 338 334 330 327 324 321 320 320 322 321 318 316 318 316 309 306 308 310 312 307 299 297 300 308 320 325 328 332 333 329 323 316 312 313 315 315 313 307 303 298 295 294 293 294 290 277 266 265 264 263 261 259 257 259 262 261 260 261 264 266 266 263 260 257 252 247 242 236 234 233 232 231 230 229 231 227 220 217 204 190 181 178 181 191
338 334 329 327 325 323 323 320 319 321 322 319 317 319 317 309 308 311 311 309 301 294 292 292 301 313 319 325 329 329 325 320 314 310 309 311 312 311 308 303 296 292 292 291 292 291 280 271 267 263 259 258 257 257 259 259 259 259 258 259 263 266 265 260 257 254 249 246 240 234 231 231 232 232 231 233 233 228 225 217 205 199 197 190 181
332 330 328 326 326 325 324 321 321 324 325 322 321 322 317 312 314 318 316 310 301 293 287 287 298 312 319 324 326 324 320 316 311 308 307 309 309 308 306 302 294 289 289 290 289 288 283 277 272 264 258 257 258 257 257 258 258 258 256 255 258 262 264 262 258 254 250 247 242 236 232 230 230 230 229 230 232 231 227 224 218 211 209 208 196
329 331 330 327 327 326 326 328 330 332 331 329 328 326 322 321 324 325 321 312 302 291 285 288 303 316 319 321 320 319 317 313 310 307 308 308 307 306 304 299 292 286 285 286 286 285 284 279 273 265 260 258 257 257 257 257 255 253 252 253 254 255 258 261 261 256 252 247 241 236 233 231 230 228 228 228 229 229 226 223 222 218 216 218 214
331 331 328 328 331 333 337 338 336 335 333 331 330 328 327 328 328 325 320 313 303 293 289 295 308 315 317 317 316 315 314 311 309 308 307 305 303 302 300 296 290 284 282 282 282 283 283 280 270 261 258 256 255 256 256 254 251 249 249 250 251 250 251 257 261 260 257 250 242 238 235 234 231 226 225 226 225 225 224 221 222 221 220 221 219
331 327 326 334 339 341 341 337 334 333 330 330 329 328 327 327 324 322 321 317 310 303 301 305 313 317 317 316 315 314 313 312 311 308 305 302 300 298 295 293 289 284 281 279 277 279 279 277 269 259 254 253 254 256 255 251 247 246 247 248 247 245 244 248 255 259 260 256 249 242 239 238 234 228 225 224 223 222 221 220 220 221 222 222 220
326 323 331 341 341 338 335 332 332 330 328 327 327 326 326 324 322 322 324 324 322 318 316 316 318 319 317 315 314 314 314 314 311 308 304 301 297 294 293 293 292 289 284 277 274 276 276 272 268 263 257 253 254 256 257 255 248 243 242 242 241 240 238 238 241 247 252 255 255 251 247 244 239 232 229 226 224 221 218 217 217 218 222 223 220
321 326 338 338 334 331 329 330 330 329 327 326 326 327 327 325 325 328 329 328 327 323 319 317 316 314 313 314 314 315 315 314 310 306 303 299 294 292 293 293 294 296 293 282 274 273 273 272 272 271 265 258 257 258 258 257 251 244 239 236 234 234 235 233 231 235 240 243 248 251 251 249 244 238 234 230 227 223 219 217 217 217 220 222 221
322 332 336 330 327 327 328 328 329 330 330 328 326 326 324 322 324 326 325 322 319 316 313 311 309 310 313 313 314 314 313 310 306 302 300 297 295 294 293 291 294 301 303 297 287 278 273 270 271 271 267 262 261 261 260 258 254 247 241 236 234 232 234 233 231 232 235 236 238 243 248 249 244 239 237 233 228 225 222 220 220 220 221 223 221
329 333 330 325 325 326 327 328 329 329 330 330 328 323 319 319 319 319 319 318 316 312 309 308 310 314 315 313 312 313 312 307 302 299 298 297 297 295 293 292 297 303 306 307 303 297 290 281 274 270 267 265 266 266 265 262 257 252 245 240 235 232 231 233 233 233 234 235 235 237 241 244 242 238 236 233 229 226 223 221 222 223 223 225 224
330 328 325 323 324 324 325 329 332 332 331 329 327 324 323 321 320 321 321 317 314 311 312 318 321 317 312 312 314 314 309 304 300 300 301 303 304 304 303 301 302 305 304 303 302 300 300 296 290 284 278 275 274 273 270 265 259 254 248 242 237 233 231 231 233 234 236 237 235 235 237 239 241 239 237 235 231 227 223 220 221 222 223 225 225
325 324 322 322 323 324 328 331 333 334 333 329 325 323 323 321 319 321 319 315 316 322 326 323 316 312 312 316 320 315 308 304 307 311 313 313 312 311 309 307 306 304 302 302 302 301 300 298 295 293 288 284 281 276 271 266 260 253 248 244 239 235 232 231 233 236 238 237 235 234 234 235 238 240 240 238 235 230 226 223 222 221 221 222 222
323 324 324 325 325 327 333 333 331 332 333 332 327 323 321 322 322 321 319 323 329 329 323 316 311 315 322 322 320 315 310 312 317 318 314 311 309 310 310 308 305 302 301 304 308 308 306 302 296 292 290 288 284 276 270 263 256 250 246 245 241 236 233 232 233 236 236 236 235 235 235 235 236 238 240 240 238 234 229 226 225 223 220 220 220
324 325 327 328 326 329 335 334 331 332 332 332 329 325 324 327 326 323 323 330 329 321 316 317 323 328 325 320 317 314 311 313 315 313 309 307 311 314 313 309 305 305 308 309 308 306 304 300 294 290 287 285 281 276 270 263 254 248 246 245 241 236 235 235 235 235 233 233 234 234 236 238 238 238 239 240 240 238 233 229 226 222 219 218 219
324 326 328 328 326 329 335 333 332 334 334 334 330 326 327 328 326 324 325 327 325 321 323 329 329 325 320 317 314 310 308 308 306 306 308 314 319 318 315 313 313 313 313 310 306 303 299 294 289 285 283 281 276 271 267 264 260 256 253 249 242 236 235 235 234 232 230 230 231 232 235 238 240 240 240 241 241 241 239 235 232 226 220 217 215
324 326 328 327 326 330 333 333 333 333 334 335 330 326 327 327 325 324 325 326 327 328 330 328 324 320 317 314 312 309 307 306 306 309 316 322 321 317 314 313 312 311 309 306 304 299 295 290 283 278 277 275 272 270 268 265 263 262 258 251 242 235 233 231 231 230 229 231 232 233 236 238 238 239 240 241 242 242 242 240 237 233 227 223 218
324 326 327 328 329 330 332 335 335 334 334 334 331 328 327 326 325 325 325 325 327 328 325 321 319 317 314 314 315 315 313 313 315 318 319 319 317 314 313 311 309 307 304 301 297 291 287 284 279 273 270 268 268 269 268 265 261 259 258 254 244 235 231 229 228 229 231 233 235 236 237 237 236 236 237 238 239 241 242 242 241 238 235 231 226
323 325 327 328 327 329 334 334 335 336 336 334 331 328 327 326 325 325 325 325 325 325 322 318 316 316 317 318 319 318 318 316 315 316 317 316 314 312 311 308 305 302 298 294 292 288 284 280 276 270 268 266 266 266 264 261 258 254 253 253 246 236 231 230 229 230 232 233 233 233 233 234 236 236 235 236 237 239 241 241 242 242 241 238 234
323 324 327 328 327 331 335 334 334 336 337 335 331 327 326 326 326 326 326 326 324 322 319 317 318 319 319 320 320 319 316 314 314 316 316 314 312 310 308 305 301 298 295 291 290 288 285 281 276 272 269 268 268 268 263 256 254 251 250 253 249 238 232 234 235 234 234 232 230 229 229 231 232 233 234 235 235 236 237 237 238 240 240 239 237
324 325 328 329 331 334 335 335 334 334 336 335 332 328 328 328 327 326 325 325 324 321 319 319 321 321 321 321 320 318 316 315 316 317 314 312 310 307 305 303 299 295 292 288 287 286 285 283 277 270 267 265 266 268 263 253 249 250 252 254 252 242 235 236 236 235 235 234 232 231 231 232 232 233 235 236 233 231 231 230 232 235 237 236 233
325 327 329 330 334 337 335 334 333 332 335 337 333 329 328 328 327 326 324 323 323 321 322 322 323 323 322 320 319 317 316 316 316 314 313 311 309 306 305 302 298 294 290 285 283 281 279 279 278 273 266 264 267 269 264 255 251 252 254 256 253 247 243 240 237 235 234 233 232 230 230 231 234 236 238 236 231 227 226 226 226 229 232 233 231
327 328 329 332 336 337 335 334 332 332 335 337 334 331 328 327 326 325 324 324 324 324 325 325 324 323 321 319 318 316 316 316 315 313 311 310 308 306 304 301 297 294 290 286 283 282 282 285 288 286 282 278 280 279 271 265 262 258 257 259 256 248 244 241 240 238 235 232 231 230 228 228 230 233 236 234 228 222 222 224 224 224 225 226 228
329 329 331 335 337 337 336 333 330 335 341 339 333 329 328 325 324 324 323 325 327 328 328 326 323 321 320 319 318 317 315 314 312 311 309 308 307 305 302 300 297 293 290 289 287 285 289 293 291 289 293 293 291 290 282 272 270 266 262 260 258 251 246 243 241 239 236 233 232 230 228 225 225 228 232 231 225 220 220 222 222 220 219 219 222
332 332 334 338 338 337 337 333 330 338 346 342 333 328 326 324 323 323 324 326 329 330 329 325 322 321 320 320 318 315 313 311 310 310 309 307 305 303 301 300 297 293 291 293 294 293 293 295 289 284 286 285 282 285 284 275 273 273 270 267 261 254 248 243 240 238 236 234 231 230 228 226 226 228 229 227 223 221 222 222 219 215 213 216 218
334 336 338 339 339 339 337 332 331 336 340 340 335 329 326 325 324 324 324 327 330 330 327 324 322 322 320 319 317 314 313 312 311 310 309 307 304 302 302 302 301 300 299 300 303 301 295 293 291 286 284 283 282 285 287 286 288 288 286 283 274 262 252 245 241 235 231 230 229 228 228 227 229 230 231 233 232 229 225 221 214 209 211 215 215
336 339 341 340 340 340 335 329 333 341 341 340 337 330 326 327 327 327 328 330 330 328 326 325 324 323 320 318 316 315 315 315 314 312 310 310 310 307 304 306 307 307 307 308 309 305 298 298 301 300 299 300 301 299 299 301 304 300 294 289 280 271 264 258 250 237 227 222 220 221 224 227 229 232 235 239 240 235 228 219 210 209 214 214 210
339 340 343 342 340 340 335 330 338 345 343 341 337 332 328 329 329 330 331 330 329 327 327 326 324 322 321 320 319 320 320 318 317 315 312 311 313 312 309 309 309 311 314 314 311 311 316 323 325 325 327 324 318 312 307 305 306 303 296 288 280 275 270 263 253 238 227 221 219 223 227 229 232 236 238 238 238 235 228 218 209 209 210 206 200
339 340 345 345 341 338 334 332 343 347 344 341 338 334 331 330 331 332 331 329 330 330 328 326 324 323 323 323 323 323 323 321 320 320 317 313 315 317 316 316 316 317 318 317 314 318 325 330 330 326 322 318 317 317 311 304 301 299 294 285 278 273 270 262 250 236 229 228 228 229 231 234 238 241 238 233 231 232 230 220 207 202 196 187 184
340 345 347 345 341 336 333 336 347 348 345 342 339 336 332 331 332 332 331 331 332 331 328 326 325 325 325 325 325 325 325 324 324 325 322 320 321 322 320 320 322 321 319 317 317 319 321 323 324 319 314 313 317 318 312 303 298 296 294 288 279 270 265 259 251 240 234 234 233 233 235 237 238 236 232 227 224 227 229 217 199 190 182 175 174
347 348 345 343 340 335 335 345 350 346 344 342 340 338 333 332 334 334 332 333 332 330 328 326 326 327 326 326 325 325 326 326 328 328 327 325 325 323 321 322 324 321 316 315 317 318 317 317 318 318 319 323 322 316 311 307 305 303 299 293 284 273 261 253 248 241 236 235 234 233 233 231 227 228 226 221 221 225 221 202 188 181 173 169 169
350 345 341 341 339 337 344 352 347 343 342 342 341 339 335 334 335 334 333 333 332 329 329 328 327 328 328 327 327 327 328 330 331 331 331 328 327 325 321 319 320 316 311 312 314 314 313 313 318 325 325 322 318 315 315 316 315 312 311 306 292 276 260 246 236 229 226 226 220 214 213 211 214 220 217 212 218 219 200 184 178 171 163 162 164
347 340 338 341 343 345 350 349 343 341 342 341 340 341 339 336 335 335 335 334 332 330 330 329 329 329 329 330 330 329 330 333 335 335 335 333 331 328 321 315 315 315 312 310 309 309 310 313 320 321 317 315 316 317 321 324 322 319 322 322 309 263 210 186 182 185 189 186 177 178 190 197 199 200 195 196 200 188 173 165 160 156 156 160 163
340 338 342 348 349 348 347 343 340 341 341 341 341 340 339 338 337 337 337 335 333 332 331 329 330 330 330 330 331 331 332 333 334 334 335 332 330 329 322 314 313 312 306 302 303 305 308 313 314 310 307 309 313 317 323 326 325 325 329 343 108 132 138 142 146 147 145 146 153 156 154 153 147 138 136 137 138 140 142 141 140 144 150 154 156
338 343 353 353 348 343 342 341 340 340 340 340 341 340 340 340 339 339 339 337 334 333 332 331 331 332 331 331 331 332 332 331 330 331 332 330 328 325 319 315 317 316 308 302 304 307 311 317 316 311 306 300 299 312 324 326 324 324 316 157 138 134 135 133 136 143 142 136 133 128 122 121 119 116 115 116 118 121 124 128 134 140 144 146 150
344 353 355 349 342 340 341 341 340 341 341 340 339 339 340 341 341 341 341 338 335 334 332 332 333 333 331 331 331 330 330 330 329 329 329 329 329 328 322 316 318 322 320 315 316 321 329 334 334 335 336 323 309 317 331 334 335 338 164 150 133 128 130 125 132 143 139 125 117 110 107 110 112 112 112 113 116 118 119 122 128 136 142 146 149
354 354 348 343 341 342 342 341 341 341 340 339 339 340 341 342 342 342 341 339 337 335 332 332 333 332 330 330 329 329 329 330 329 330 329 328 329 333 334 329 325 324 325 326 331 340 348 349 348 352 358 351 343 346 348 344 360 98 129 125 116 121 124 125 138 141 125 111 109 104 101 106 110 111 113 115 118 120 120 122 124 129 138 145 147